Auburn, CA

9:36 PM PST on December 09, 2019 (GMT -0800)
Auburn Municipal

Weather History for KAUN - November, 2019

Change the Weather History Date:

Monday, November 18, 2019

  Actual Average Record
Temperature  
Mean Temperature 62 °F -  
Max Temperature 75 °F 60 °F 79 °F (1949)
Min Temperature 48 °F 41 °F 31 °F (1953)
Degree Days  
Heating Degree Days 4    
Growing Degree Days 12 (Base 50)    
Moisture  
Dew Point 39 °F    
Average Humidity 45    
Maximum Humidity 76    
Minimum Humidity 23    
Precipitation  
Precipitation 0.00 in - - ()
Sea Level Pressure  
Sea Level Pressure 29.96 in    
Wind  
Wind Speed 2 mph ()    
Max Wind Speed 13 mph    
Max Gust Speed -    
Visibility 9.7 miles    
Events      
Averages and records for this station are not official NWS values.
T = Trace of Precipitation, MM = Missing Value Source: Averaged Metar Reports

Daily Weather History Graph

Daily Weather History Graph

Search for Another Location

Airport or City:

Astronomy

Nov. 18, 2019 Rise Set
Actual Time 6:50 AM PST 4:48 PM PST
Civil Twilight 6:21 AM PST 5:17 PM PST
Nautical Twilight 5:49 AM PST 5:49 PM PST
Astronomical Twilight 5:17 AM PST 6:21 PM PST
Moon 10:39 PM PST (11/18) 12:24 PM PST (11/18)
Length of Visible Light 10h 55m
Length of Day
9h 58m
Waning Gibbous, 62% of the Moon is Illuminated
Nov 18
Waning Gibbous
Nov 19
Last Quarter
Nov 26
New
Dec 3
First Quarter
Dec 11
Full

Hourly Weather History & Observations

Time (PST) Temp. Dew Point Humidity Pressure Visibility Wind Dir Wind Speed Gust Speed Precip Events Conditions
12:15 AM 55.4 °F 41.0 °F 58% 30.07 in 10.0 mi East 6.9 mph - N/A   Clear
12:35 AM 55.4 °F 41.0 °F 58% 30.07 in 10.0 mi East 6.9 mph - N/A   Clear
1:15 AM 55.4 °F 41.0 °F 58% 30.07 in 10.0 mi Calm Calm - N/A   Clear
1:35 AM 55.4 °F 41.0 °F 58% 30.07 in 10.0 mi East 8.1 mph - N/A   Clear
1:55 AM 55.4 °F 41.0 °F 58% 30.07 in 10.0 mi East 6.9 mph - N/A   Clear
2:15 AM 57.2 °F 41.0 °F 55% 30.07 in 10.0 mi Calm Calm - N/A   Clear
2:35 AM 57.2 °F 41.0 °F 55% 30.06 in 10.0 mi East 4.6 mph - N/A   Clear
2:55 AM 57.2 °F 39.2 °F 51% 30.06 in 10.0 mi Calm Calm - N/A   Clear
3:15 AM 57.2 °F 39.2 °F 51% 30.06 in 10.0 mi East 5.8 mph - N/A   Clear
3:35 AM 55.4 °F 39.2 °F 54% 30.05 in 10.0 mi East 5.8 mph - N/A   Clear
3:55 AM 57.2 °F 39.2 °F 51% 30.04 in 10.0 mi East 6.9 mph - N/A   Clear
4:15 AM 57.2 °F 37.4 °F 48% 30.04 in 10.0 mi East 5.8 mph - N/A   Clear
4:35 AM 59.0 °F 37.4 °F 45% 30.03 in 10.0 mi Calm Calm - N/A   Clear
4:55 AM 57.2 °F 35.6 °F 44% 30.03 in 10.0 mi East 4.6 mph - N/A   Clear
5:15 AM 57.2 °F 35.6 °F 44% 30.03 in 10.0 mi Calm Calm - N/A   Clear
5:35 AM 59.0 °F 35.6 °F 42% 30.02 in 10.0 mi Calm Calm - N/A   Clear
5:55 AM 59.0 °F 33.8 °F 39% 30.02 in 10.0 mi Calm Calm - N/A   Clear
6:15 AM 59.0 °F 33.8 °F 39% 30.02 in 10.0 mi Calm Calm - N/A   Clear
6:35 AM 55.4 °F 33.8 °F 44% 30.02 in 10.0 mi Calm Calm - N/A   Clear
6:55 AM 50.0 °F 33.8 °F 54% 30.02 in 10.0 mi Calm Calm - N/A   Clear
7:15 AM 50.0 °F 33.8 °F 54% 30.03 in 10.0 mi Calm Calm - N/A   Clear
7:35 AM 53.6 °F 35.6 °F 51% 30.03 in 10.0 mi Calm Calm - N/A   Clear
7:55 AM 57.2 °F 35.6 °F 44% 30.03 in 10.0 mi Calm Calm - N/A   Clear
8:15 AM 62.6 °F 35.6 °F 37% 30.03 in 10.0 mi Calm Calm - N/A   Clear
8:35 AM 64.4 °F 33.8 °F 32% 30.03 in 10.0 mi East 3.5 mph - N/A   Clear
8:55 AM 66.2 °F 33.8 °F 30% 30.03 in 10.0 mi Calm Calm - N/A   Clear
9:15 AM 68.0 °F 35.6 °F 30% 30.02 in 10.0 mi Calm Calm - N/A   Clear
9:35 AM 69.8 °F 33.8 °F 27% 30.02 in 10.0 mi Calm Calm - N/A   Clear
9:55 AM 71.6 °F 33.8 °F 25% 30.02 in 10.0 mi Calm Calm - N/A   Clear
10:15 AM 71.6 °F 33.8 °F 25% 30.01 in 10.0 mi Calm Calm - N/A   Clear
10:35 AM 73.4 °F 33.8 °F 23% 30.00 in 10.0 mi Calm Calm - N/A   Clear
10:55 AM 75.2 °F 37.4 °F 25% 29.99 in 10.0 mi Calm Calm - N/A   Clear
11:15 AM 75.2 °F 37.4 °F 25% 29.99 in 10.0 mi Calm Calm - N/A   Clear
11:35 AM 75.2 °F 39.2 °F 27% 29.98 in 10.0 mi Calm Calm - N/A   Clear
11:55 AM 75.2 °F 41.0 °F 29% 29.97 in 10.0 mi Calm Calm - N/A   Clear
12:15 PM 75.2 °F 41.0 °F 29% 29.96 in 10.0 mi Calm Calm - N/A   Clear
12:35 PM 73.4 °F 41.0 °F 31% 29.95 in 10.0 mi West 5.8 mph - N/A   Clear
12:55 PM 73.4 °F 41.0 °F 31% 29.95 in 10.0 mi Calm Calm - N/A   Clear
1:15 PM 73.4 °F 41.0 °F 31% 29.94 in 10.0 mi Calm Calm - N/A   Clear
1:35 PM 73.4 °F 39.2 °F 29% 29.93 in 10.0 mi Calm Calm - N/A   Clear
1:55 PM 73.4 °F 41.0 °F 31% 29.93 in 10.0 mi Calm Calm - N/A   Clear
2:15 PM 73.4 °F 41.0 °F 31% 29.92 in 10.0 mi Calm Calm - N/A   Clear
2:35 PM 73.4 °F 41.0 °F 31% 29.91 in 10.0 mi Calm Calm - N/A   Clear
2:55 PM 73.4 °F 41.0 °F 31% 29.90 in 10.0 mi Calm Calm - N/A   Clear
3:15 PM 73.4 °F 41.0 °F 31% 29.90 in 10.0 mi Calm Calm - N/A   Clear
3:35 PM 73.4 °F 39.2 °F 29% 29.89 in 7.0 mi Calm Calm - N/A   Clear
4:15 PM 69.8 °F 42.8 °F 38% 29.89 in 10.0 mi Calm Calm - N/A   Clear
4:55 PM 60.8 °F 41.0 °F 48% 29.88 in 7.0 mi Calm Calm - N/A   Clear
5:15 PM 55.4 °F 41.0 °F 58% 29.88 in 10.0 mi Calm Calm - N/A   Clear
5:35 PM 51.8 °F 41.0 °F 67% 29.88 in 4.0 mi Calm Calm - N/A   Haze
5:55 PM 51.8 °F 41.0 °F 67% 29.89 in 10.0 mi Calm Calm - N/A   Clear
6:15 PM 50.0 °F 39.2 °F 66% 29.88 in 10.0 mi Calm Calm - N/A   Clear
6:35 PM 50.0 °F 41.0 °F 71% 29.88 in 5.0 mi Calm Calm - N/A   Haze
6:55 PM 50.0 °F 41.0 °F 71% 29.89 in 10.0 mi Calm Calm - N/A   Clear
7:15 PM 48.2 °F 41.0 °F 76% 29.89 in 8.0 mi Calm Calm - N/A   Clear
7:35 PM 51.8 °F 42.8 °F 71% 29.88 in 10.0 mi Calm Calm - N/A   Clear
8:15 PM 57.2 °F 42.8 °F 59% 29.88 in 10.0 mi Calm Calm - N/A   Clear
8:35 PM 59.0 °F 42.8 °F 55% 29.88 in 10.0 mi Calm Calm - N/A   Clear
8:55 PM 59.0 °F 42.8 °F 55% 29.88 in 10.0 mi Calm Calm - N/A   Clear
9:15 PM 59.0 °F 41.0 °F 51% 29.88 in 10.0 mi Calm Calm - N/A   Clear
9:35 PM 60.8 °F 41.0 °F 48% 29.88 in 10.0 mi Calm Calm - N/A   Clear
9:55 PM 59.0 °F 41.0 °F 51% 29.87 in 10.0 mi East 4.6 mph - N/A   Clear
10:15 PM 59.0 °F 41.0 °F 51% 29.86 in 10.0 mi East 8.1 mph - N/A   Clear
10:35 PM 59.0 °F 41.0 °F 51% 29.86 in 10.0 mi ESE 8.1 mph - N/A   Clear
10:55 PM 59.0 °F 39.2 °F 48% 29.85 in 10.0 mi ESE 10.4 mph - N/A   Clear
11:15 PM 59.0 °F 39.2 °F 48% 29.83 in 10.0 mi East 12.7 mph - N/A   Clear
11:35 PM 59.0 °F 37.4 °F 45% 29.82 in 10.0 mi East 12.7 mph - N/A   Clear
11:55 PM 60.8 °F 37.4 °F 42% 29.81 in 10.0 mi East 12.7 mph - N/A   Clear